Starlink 31870

operational
NORAD ID: 59787 Int'l Des: 2024-093 Owner: SPXS Country: US Constellation: starlink
LEOCIRCULAR

About Starlink 31870

Description loading...

Live Position

Loading 3D Globe...

Upcoming Passes

Altitude History

Altitude vs Time

uPlot chart will show altitude changes over time

Two-Line Element Set

1 59787U 24093F 25353.28892849 .00000462 00000-0 26294-4 0 9991
2 59787 43.0004 302.5754 0001052 273.7839 86.2892 15.27588567 90404
Epoch: Dec 19, 2025 • Age: 13 hours

Current Status

Altitude 486.3 km
Velocity 7.63 km/s
Sub-Earth Point 40.91°N, 18.71°W
Launch Date May 18, 2024
Age 1.5 years
Type internet

Technical Details

Classification Payload
Mass 730.00 kg
Dry Mass 700.00 kg
Total Mass 730.00 kg
Length 0.30 m
Diameter 4.10 m
Span 29.00 m
Shape Box + pan
Manufacturer SPXS
Bus Type Starlink V2M
Phase Status In Orbit
Owner/State SPXS/US

Large Constellations

Loading constellations...